Year,Month,Day,Hour,Minute,Value (Times are PST for temperature in C)
2013,05,04,00,00,12.80
2013,05,04,00,01,12.70
2013,05,04,00,02,12.70
2013,05,04,00,03,12.70
2013,05,04,00,04,12.60
2013,05,04,00,05,12.60
2013,05,04,00,06,12.60
2013,05,04,00,07,12.50
2013,05,04,00,08,12.50
2013,05,04,00,09,12.50
2013,05,04,00,10,12.40
2013,05,04,00,11,12.30
2013,05,04,00,12,12.30
2013,05,04,00,13,12.20
2013,05,04,00,14,12.20
2013,05,04,00,15,12.20
2013,05,04,00,16,12.10
2013,05,04,00,17,12.10
2013,05,04,00,18,12.10
2013,05,04,00,19,12.00
2013,05,04,00,20,12.00
2013,05,04,00,21,11.90
2013,05,04,00,22,11.90
2013,05,04,00,23,11.90
2013,05,04,00,24,11.80
2013,05,04,00,25,11.80
2013,05,04,00,26,11.80
2013,05,04,00,27,11.70
2013,05,04,00,28,11.70
2013,05,04,00,29,11.60
2013,05,04,00,30,11.60
2013,05,04,00,31,11.50
2013,05,04,00,32,11.40
2013,05,04,00,33,11.40
2013,05,04,00,34,11.30
2013,05,04,00,35,11.30
2013,05,04,00,36,11.30
2013,05,04,00,37,11.30
2013,05,04,00,38,11.30
2013,05,04,00,39,11.20
2013,05,04,00,40,11.20
2013,05,04,00,41,11.20
2013,05,04,00,42,11.10
2013,05,04,00,43,11.10
2013,05,04,00,44,11.00
2013,05,04,00,45,11.00
2013,05,04,00,46,11.00
2013,05,04,00,47,10.90
2013,05,04,00,48,10.90
2013,05,04,00,49,10.80
2013,05,04,00,50,10.80
2013,05,04,00,51,10.80
2013,05,04,00,52,10.70
2013,05,04,00,53,10.70
2013,05,04,00,54,10.60
2013,05,04,00,55,10.60
2013,05,04,00,56,10.60
2013,05,04,00,57,10.50
2013,05,04,00,58,10.50
2013,05,04,00,59,10.40
2013,05,04,01,00,10.40
2013,05,04,01,01,10.40
2013,05,04,01,02,10.40
2013,05,04,01,03,10.40
2013,05,04,01,04,10.40
2013,05,04,01,05,10.40
2013,05,04,01,06,10.30
2013,05,04,01,07,10.30
2013,05,04,01,08,10.30
2013,05,04,01,09,10.30
2013,05,04,01,10,10.20
2013,05,04,01,11,10.20
2013,05,04,01,12,10.10
2013,05,04,01,13,10.10
2013,05,04,01,14,10.00
2013,05,04,01,15,9.90
2013,05,04,01,16,9.80
2013,05,04,01,17,9.80
2013,05,04,01,18,9.70
2013,05,04,01,19,9.70
2013,05,04,01,20,9.70
2013,05,04,01,21,9.60
2013,05,04,01,22,9.60
2013,05,04,01,23,9.60
2013,05,04,01,24,9.50
2013,05,04,01,25,9.50
2013,05,04,01,26,9.40
2013,05,04,01,27,9.40
2013,05,04,01,28,9.30
2013,05,04,01,29,9.30
2013,05,04,01,30,9.20
2013,05,04,01,31,9.20
2013,05,04,01,32,9.20
2013,05,04,01,33,9.20
2013,05,04,01,34,9.10
2013,05,04,01,35,9.10
2013,05,04,01,36,9.10
2013,05,04,01,37,9.10
2013,05,04,01,38,9.10
2013,05,04,01,39,9.10
2013,05,04,01,40,9.10
2013,05,04,01,41,9.10
2013,05,04,01,42,9.00
2013,05,04,01,43,9.00
2013,05,04,01,44,9.00
2013,05,04,01,45,9.00
2013,05,04,01,46,9.00
2013,05,04,01,47,9.00
2013,05,04,01,48,9.00
2013,05,04,01,49,9.00
2013,05,04,01,50,9.00
2013,05,04,01,51,9.00
2013,05,04,01,52,9.00
2013,05,04,01,53,9.00
2013,05,04,01,54,9.00
2013,05,04,01,55,8.90
2013,05,04,01,56,8.90
2013,05,04,01,57,8.90
2013,05,04,01,58,8.90
2013,05,04,01,59,8.90
2013,05,04,02,00,8.90
2013,05,04,02,01,9.00
2013,05,04,02,02,9.00
2013,05,04,02,03,9.00
2013,05,04,02,04,9.00
2013,05,04,02,05,9.10
2013,05,04,02,06,9.10
2013,05,04,02,07,9.10
2013,05,04,02,08,9.10
2013,05,04,02,09,9.00
2013,05,04,02,10,8.90
2013,05,04,02,11,8.90
2013,05,04,02,12,8.80
2013,05,04,02,13,8.80
2013,05,04,02,14,8.80
2013,05,04,02,15,8.80
2013,05,04,02,16,8.70
2013,05,04,02,17,8.70
2013,05,04,02,18,8.60
2013,05,04,02,19,8.60
2013,05,04,02,20,8.60
2013,05,04,02,21,8.50
2013,05,04,02,22,8.40
2013,05,04,02,23,8.40
2013,05,04,02,24,8.40
2013,05,04,02,25,8.30
2013,05,04,02,26,8.30
2013,05,04,02,27,8.30
2013,05,04,02,28,8.20
2013,05,04,02,29,8.20
2013,05,04,02,30,8.20
2013,05,04,02,31,8.10
2013,05,04,02,32,8.10
2013,05,04,02,33,8.00
2013,05,04,02,34,8.00
2013,05,04,02,35,7.90
2013,05,04,02,36,7.90
2013,05,04,02,37,7.90
2013,05,04,02,38,7.80
2013,05,04,02,39,7.80
2013,05,04,02,40,7.80
2013,05,04,02,41,7.70
2013,05,04,02,42,7.70
2013,05,04,02,43,7.60
2013,05,04,02,44,7.60
2013,05,04,02,45,7.60
2013,05,04,02,46,7.50
2013,05,04,02,47,7.50
2013,05,04,02,48,7.40
2013,05,04,02,49,7.40
2013,05,04,02,50,7.40
2013,05,04,02,51,7.30
2013,05,04,02,52,7.30
2013,05,04,02,53,7.30
2013,05,04,02,54,7.20
2013,05,04,02,55,7.20
2013,05,04,02,56,7.20
2013,05,04,02,57,7.20
2013,05,04,02,58,7.20
2013,05,04,02,59,7.10
2013,05,04,03,00,7.10
2013,05,04,03,01,7.10
2013,05,04,03,02,7.10
2013,05,04,03,03,7.00
2013,05,04,03,04,7.00
2013,05,04,03,05,7.00
2013,05,04,03,06,6.90
2013,05,04,03,07,6.90
2013,05,04,03,08,6.90
2013,05,04,03,09,6.80
2013,05,04,03,10,6.80
2013,05,04,03,11,6.80
2013,05,04,03,12,6.80
2013,05,04,03,13,6.70
2013,05,04,03,14,6.70
2013,05,04,03,15,6.70
2013,05,04,03,16,6.70
2013,05,04,03,17,6.60
2013,05,04,03,18,6.60
2013,05,04,03,19,6.60
2013,05,04,03,20,6.60
2013,05,04,03,21,6.50
2013,05,04,03,22,6.50
2013,05,04,03,23,6.50
2013,05,04,03,24,6.50
2013,05,04,03,25,6.40
2013,05,04,03,26,6.40
2013,05,04,03,27,6.40
2013,05,04,03,28,6.40
2013,05,04,03,29,6.40
2013,05,04,03,30,6.40
2013,05,04,03,31,6.30
2013,05,04,03,32,6.30
2013,05,04,03,33,6.30
2013,05,04,03,34,6.30
2013,05,04,03,35,6.30
2013,05,04,03,36,6.20
2013,05,04,03,37,6.20
2013,05,04,03,38,6.20
2013,05,04,03,39,6.20
2013,05,04,03,40,6.20
2013,05,04,03,41,6.20
2013,05,04,03,42,6.20
2013,05,04,03,43,6.20
2013,05,04,03,44,6.10
2013,05,04,03,45,6.10
2013,05,04,03,46,6.10
2013,05,04,03,47,6.10
2013,05,04,03,48,6.10
2013,05,04,03,49,6.10
2013,05,04,03,50,6.10
2013,05,04,03,51,6.10
2013,05,04,03,52,6.10
2013,05,04,03,53,6.10
2013,05,04,03,54,6.10
2013,05,04,03,55,6.10
2013,05,04,03,56,6.10
2013,05,04,03,57,6.10
2013,05,04,03,58,6.10
2013,05,04,03,59,6.10
2013,05,04,04,00,6.10
2013,05,04,04,01,6.10
2013,05,04,04,02,6.10
2013,05,04,04,03,6.10
2013,05,04,04,04,6.10
2013,05,04,04,05,6.10
2013,05,04,04,06,6.10
2013,05,04,04,07,6.10
2013,05,04,04,08,6.10
2013,05,04,04,09,6.10
2013,05,04,04,10,6.10
2013,05,04,04,11,6.00
2013,05,04,04,12,6.00
2013,05,04,04,13,6.00
2013,05,04,04,14,6.00
2013,05,04,04,15,6.00
2013,05,04,04,16,5.90
2013,05,04,04,17,5.90
2013,05,04,04,18,5.90
2013,05,04,04,19,5.90
2013,05,04,04,20,5.90
2013,05,04,04,21,5.80
2013,05,04,04,22,5.80
2013,05,04,04,23,5.80
2013,05,04,04,24,5.80
2013,05,04,04,25,5.80
2013,05,04,04,26,5.80
2013,05,04,04,27,5.80
2013,05,04,04,28,5.80
2013,05,04,04,29,5.80
2013,05,04,04,30,5.80
2013,05,04,04,31,5.80
2013,05,04,04,32,5.80
2013,05,04,04,33,5.80
2013,05,04,04,34,5.70
2013,05,04,04,35,5.70
2013,05,04,04,36,5.70
2013,05,04,04,37,5.70
2013,05,04,04,38,5.70
2013,05,04,04,39,5.70
2013,05,04,04,40,5.70
2013,05,04,04,41,5.70
2013,05,04,04,42,5.70
2013,05,04,04,43,5.70
2013,05,04,04,44,5.70
2013,05,04,04,45,5.70
2013,05,04,04,46,5.70
2013,05,04,04,47,5.70
2013,05,04,04,48,5.60
2013,05,04,04,49,5.60
2013,05,04,04,50,5.60
2013,05,04,04,51,5.60
2013,05,04,04,52,5.60
2013,05,04,04,53,5.60
2013,05,04,04,54,5.60
2013,05,04,04,55,5.60
2013,05,04,04,56,5.50
2013,05,04,04,57,5.50
2013,05,04,04,58,5.50
2013,05,04,04,59,5.50
2013,05,04,05,00,5.50
2013,05,04,05,01,5.40
2013,05,04,05,02,5.40
2013,05,04,05,03,5.40
2013,05,04,05,04,5.40
2013,05,04,05,05,5.40
2013,05,04,05,06,5.40
2013,05,04,05,07,5.30
2013,05,04,05,08,5.30
2013,05,04,05,09,5.30
2013,05,04,05,10,5.30
2013,05,04,05,11,5.30
2013,05,04,05,12,5.30
2013,05,04,05,13,5.30
2013,05,04,05,14,5.20
2013,05,04,05,15,5.20
2013,05,04,05,16,5.20
2013,05,04,05,17,5.20
2013,05,04,05,18,5.20
2013,05,04,05,19,5.20
2013,05,04,05,20,5.20
2013,05,04,05,21,5.10
2013,05,04,05,22,5.10
2013,05,04,05,23,5.10
2013,05,04,05,24,5.10
2013,05,04,05,25,5.10
2013,05,04,05,26,5.10
2013,05,04,05,27,5.10
2013,05,04,05,28,5.10
2013,05,04,05,29,5.10
2013,05,04,05,30,5.10
2013,05,04,05,31,5.10
2013,05,04,05,32,5.00
2013,05,04,05,33,5.00
2013,05,04,05,34,5.00
2013,05,04,05,35,5.00
2013,05,04,05,36,5.00
2013,05,04,05,37,4.90
2013,05,04,05,38,4.90
2013,05,04,05,39,4.90
2013,05,04,05,40,4.90
2013,05,04,05,41,4.90
2013,05,04,05,42,4.90
2013,05,04,05,43,4.90
2013,05,04,05,44,4.80
2013,05,04,05,45,4.80
2013,05,04,05,46,4.80
2013,05,04,05,47,4.80
2013,05,04,05,48,4.80
2013,05,04,05,49,4.80
2013,05,04,05,50,4.80
2013,05,04,05,51,4.70
2013,05,04,05,52,4.70
2013,05,04,05,53,4.70
2013,05,04,05,54,4.70
2013,05,04,05,55,4.70
2013,05,04,05,56,4.70
2013,05,04,05,57,4.60
2013,05,04,05,58,4.60
2013,05,04,05,59,4.60
2013,05,04,06,00,4.60
2013,05,04,06,01,4.60
2013,05,04,06,02,4.60
2013,05,04,06,03,4.60
2013,05,04,06,04,4.60
2013,05,04,06,05,4.60
2013,05,04,06,06,4.50
2013,05,04,06,07,4.50
2013,05,04,06,08,4.50
2013,05,04,06,09,4.50
2013,05,04,06,10,4.50
2013,05,04,06,11,4.50
2013,05,04,06,12,4.40
2013,05,04,06,13,4.40
2013,05,04,06,14,4.40
2013,05,04,06,15,4.40
2013,05,04,06,16,4.40
2013,05,04,06,17,4.40
2013,05,04,06,18,4.40
2013,05,04,06,19,4.40
2013,05,04,06,20,4.40
2013,05,04,06,21,4.40
2013,05,04,06,22,4.40
2013,05,04,06,23,4.30
2013,05,04,06,24,4.30
2013,05,04,06,25,4.30
2013,05,04,06,26,4.30
2013,05,04,06,27,4.30
2013,05,04,06,28,4.30
2013,05,04,06,29,4.30
2013,05,04,06,30,4.30
2013,05,04,06,31,4.30
2013,05,04,06,32,4.30
2013,05,04,06,33,4.30
2013,05,04,06,34,4.30
2013,05,04,06,35,4.30
2013,05,04,06,36,4.30
2013,05,04,06,37,4.30
2013,05,04,06,38,4.30
2013,05,04,06,39,4.30
2013,05,04,06,40,4.30
2013,05,04,06,41,4.30
2013,05,04,06,42,4.30
2013,05,04,06,43,4.30
2013,05,04,06,44,4.30
2013,05,04,06,45,4.30
2013,05,04,06,46,4.30
2013,05,04,06,47,4.30
2013,05,04,06,48,4.30
2013,05,04,06,49,4.30
2013,05,04,06,50,4.30
2013,05,04,06,51,4.40
2013,05,04,06,52,4.40
2013,05,04,06,53,4.40
2013,05,04,06,54,4.40
2013,05,04,06,55,4.40
2013,05,04,06,56,4.40
2013,05,04,06,57,4.40
2013,05,04,06,58,4.40
2013,05,04,06,59,4.40
2013,05,04,07,00,4.40
2013,05,04,07,01,4.40
2013,05,04,07,02,4.40
2013,05,04,07,03,4.40
2013,05,04,07,04,4.40
2013,05,04,07,05,4.40
2013,05,04,07,06,4.40
2013,05,04,07,07,4.40
2013,05,04,07,08,4.40
2013,05,04,07,09,4.40
2013,05,04,07,10,4.50
2013,05,04,07,11,4.50
2013,05,04,07,12,4.50
2013,05,04,07,13,4.60
2013,05,04,07,14,4.60
2013,05,04,07,15,4.60
2013,05,04,07,16,4.70
2013,05,04,07,17,4.70
2013,05,04,07,18,4.70
2013,05,04,07,19,4.80
2013,05,04,07,20,4.80
2013,05,04,07,21,4.90
2013,05,04,07,22,5.00
2013,05,04,07,23,5.00
2013,05,04,07,24,5.10
2013,05,04,07,25,5.20
2013,05,04,07,26,5.20
2013,05,04,07,27,5.30
2013,05,04,07,28,5.40
2013,05,04,07,29,5.50
2013,05,04,07,30,5.60
2013,05,04,07,31,5.70
2013,05,04,07,32,5.70
2013,05,04,07,33,5.80
2013,05,04,07,34,5.90
2013,05,04,07,35,6.00
2013,05,04,07,36,6.00
2013,05,04,07,37,6.10
2013,05,04,07,38,6.10
2013,05,04,07,39,6.20
2013,05,04,07,40,6.20
2013,05,04,07,41,6.30
2013,05,04,07,42,6.40
2013,05,04,07,43,6.50
2013,05,04,07,44,6.60
2013,05,04,07,45,6.70
2013,05,04,07,46,6.80
2013,05,04,07,47,6.80
2013,05,04,07,48,6.90
2013,05,04,07,49,7.00
2013,05,04,07,50,7.00
2013,05,04,07,51,7.10
2013,05,04,07,52,7.20
2013,05,04,07,53,7.20
2013,05,04,07,54,7.20
2013,05,04,07,55,7.30
2013,05,04,07,56,7.30
2013,05,04,07,57,7.30
2013,05,04,07,58,7.30
2013,05,04,07,59,7.30
2013,05,04,08,00,7.30
2013,05,04,08,01,7.30
2013,05,04,08,02,7.30
2013,05,04,08,03,7.30
2013,05,04,08,04,7.40
2013,05,04,08,05,7.40
2013,05,04,08,06,7.40
2013,05,04,08,07,7.40
2013,05,04,08,08,7.50
2013,05,04,08,09,7.50
2013,05,04,08,10,7.50
2013,05,04,08,11,7.50
2013,05,04,08,12,7.50
2013,05,04,08,13,7.40
2013,05,04,08,14,7.40
2013,05,04,08,15,7.40
2013,05,04,08,16,7.40
2013,05,04,08,17,7.40
2013,05,04,08,18,7.40
2013,05,04,08,19,7.50
2013,05,04,08,20,7.50
2013,05,04,08,21,7.50
2013,05,04,08,22,7.60
2013,05,04,08,23,7.60
2013,05,04,08,24,7.60
2013,05,04,08,25,7.70
2013,05,04,08,26,7.80
2013,05,04,08,27,7.80
2013,05,04,08,28,7.90
2013,05,04,08,29,7.90
2013,05,04,08,30,8.00
2013,05,04,08,31,8.10
2013,05,04,08,32,8.20
2013,05,04,08,33,8.20
2013,05,04,08,34,8.20
2013,05,04,08,35,8.30
2013,05,04,08,36,8.30
2013,05,04,08,37,8.30
2013,05,04,08,38,8.30
2013,05,04,08,39,8.40
2013,05,04,08,40,8.50
2013,05,04,08,41,8.60
2013,05,04,08,42,8.70
2013,05,04,08,43,8.70
2013,05,04,08,44,8.80
2013,05,04,08,45,8.90
2013,05,04,08,46,9.00
2013,05,04,08,47,9.10
2013,05,04,08,48,9.20
2013,05,04,08,49,9.30
2013,05,04,08,50,9.30
2013,05,04,08,51,9.40
2013,05,04,08,52,9.40
2013,05,04,08,53,9.40
2013,05,04,08,54,9.40
2013,05,04,08,55,9.50
2013,05,04,08,56,9.50
2013,05,04,08,57,9.60
2013,05,04,08,58,9.60
2013,05,04,08,59,9.60
2013,05,04,09,00,9.70
2013,05,04,09,01,9.80
2013,05,04,09,02,9.80
2013,05,04,09,03,9.90
2013,05,04,09,04,10.00
2013,05,04,09,05,10.00
2013,05,04,09,06,10.10
2013,05,04,09,07,10.10
2013,05,04,09,08,10.20
2013,05,04,09,09,10.20
2013,05,04,09,10,10.30
2013,05,04,09,11,10.40
2013,05,04,09,12,10.50
2013,05,04,09,13,10.50
2013,05,04,09,14,10.60
2013,05,04,09,15,10.70
2013,05,04,09,16,10.80
2013,05,04,09,17,10.80
2013,05,04,09,18,10.90
2013,05,04,09,19,10.90
2013,05,04,09,20,11.00
2013,05,04,09,21,11.00
2013,05,04,09,22,11.00
2013,05,04,09,23,11.10
2013,05,04,09,24,11.10
2013,05,04,09,25,11.10
2013,05,04,09,26,11.00
2013,05,04,09,27,11.00
2013,05,04,09,28,11.00
2013,05,04,09,29,11.00
2013,05,04,09,30,11.00
2013,05,04,09,31,11.00
2013,05,04,09,32,11.00
2013,05,04,09,33,11.00
2013,05,04,09,34,11.00
2013,05,04,09,35,11.10
2013,05,04,09,36,11.10
2013,05,04,09,37,11.20
2013,05,04,09,38,11.20
2013,05,04,09,39,11.20
2013,05,04,09,40,11.30
2013,05,04,09,41,11.30
2013,05,04,09,42,11.30
2013,05,04,09,43,11.40
2013,05,04,09,44,11.40
2013,05,04,09,45,11.50
2013,05,04,09,46,11.60
2013,05,04,09,47,11.60
2013,05,04,09,48,11.70
2013,05,04,09,49,11.80
2013,05,04,09,50,11.90
2013,05,04,09,51,12.00
2013,05,04,09,52,12.10
2013,05,04,09,53,12.20
2013,05,04,09,54,12.30
2013,05,04,09,55,12.30
2013,05,04,09,56,12.40
2013,05,04,09,57,12.50
2013,05,04,09,58,12.50
2013,05,04,09,59,12.60
2013,05,04,10,00,12.60
2013,05,04,10,01,12.70
2013,05,04,10,02,12.70
2013,05,04,10,03,12.80
2013,05,04,10,04,12.90
2013,05,04,10,05,13.00
2013,05,04,10,06,13.00
2013,05,04,10,07,13.10
2013,05,04,10,08,13.10
2013,05,04,10,09,13.20
2013,05,04,10,10,13.20
2013,05,04,10,11,13.30
2013,05,04,10,12,13.40
2013,05,04,10,13,13.50
2013,05,04,10,14,13.70
2013,05,04,10,15,13.80
2013,05,04,10,16,13.90
2013,05,04,10,17,14.00
2013,05,04,10,18,14.10
2013,05,04,10,19,14.10
2013,05,04,10,20,14.20
2013,05,04,10,21,14.30
2013,05,04,10,22,14.30
2013,05,04,10,23,14.50
2013,05,04,10,24,14.50
2013,05,04,10,25,14.60
2013,05,04,10,26,14.70
2013,05,04,10,27,14.70
2013,05,04,10,28,14.70
2013,05,04,10,29,14.70
2013,05,04,10,30,14.70
2013,05,04,10,31,14.80
2013,05,04,10,32,15.00
2013,05,04,10,33,15.10
2013,05,04,10,34,15.20
2013,05,04,10,35,15.20
2013,05,04,10,36,15.20
2013,05,04,10,37,15.20
2013,05,04,10,38,15.20
2013,05,04,10,39,15.20
2013,05,04,10,40,15.20
2013,05,04,10,41,15.20
2013,05,04,10,42,15.20
2013,05,04,10,43,15.20
2013,05,04,10,44,15.20
2013,05,04,10,45,15.20
2013,05,04,10,46,15.20
2013,05,04,10,47,15.20
2013,05,04,10,48,15.30
2013,05,04,10,49,15.30
2013,05,04,10,50,15.30
2013,05,04,10,51,15.40
2013,05,04,10,52,15.40
2013,05,04,10,53,15.40
2013,05,04,10,54,15.40
2013,05,04,10,55,15.50
2013,05,04,10,56,15.60
2013,05,04,10,57,15.70
2013,05,04,10,58,15.70
2013,05,04,10,59,15.80
2013,05,04,11,00,15.90
2013,05,04,11,01,16.00
2013,05,04,11,02,16.10
2013,05,04,11,03,16.20
2013,05,04,11,04,16.30
2013,05,04,11,05,16.40
2013,05,04,11,06,16.50
2013,05,04,11,07,16.60
2013,05,04,11,08,16.60
2013,05,04,11,09,16.70
2013,05,04,11,10,16.70
2013,05,04,11,11,16.70
2013,05,04,11,12,16.80
2013,05,04,11,13,16.80
2013,05,04,11,14,16.80
2013,05,04,11,15,16.90
2013,05,04,11,16,16.90
2013,05,04,11,17,17.00
2013,05,04,11,18,17.00
2013,05,04,11,19,17.00
2013,05,04,11,20,17.00
2013,05,04,11,21,17.10
2013,05,04,11,22,17.10
2013,05,04,11,23,17.10
2013,05,04,11,24,17.20
2013,05,04,11,25,17.20
2013,05,04,11,26,17.30
2013,05,04,11,27,17.40
2013,05,04,11,28,17.50
2013,05,04,11,29,17.60
2013,05,04,11,30,17.70
2013,05,04,11,31,17.80
2013,05,04,11,32,17.80
2013,05,04,11,33,17.90
2013,05,04,11,34,18.10
2013,05,04,11,35,18.20
2013,05,04,11,36,18.30
2013,05,04,11,37,18.40
2013,05,04,11,38,18.50
2013,05,04,11,39,18.50
2013,05,04,11,40,18.60
2013,05,04,11,41,18.70
2013,05,04,11,42,18.70
2013,05,04,11,43,18.80
2013,05,04,11,44,18.80
2013,05,04,11,45,18.90
2013,05,04,11,46,19.00
2013,05,04,11,47,19.00
2013,05,04,11,48,19.10
2013,05,04,11,49,19.20
2013,05,04,11,50,19.20
2013,05,04,11,51,19.30
2013,05,04,11,52,19.30
2013,05,04,11,53,19.30
2013,05,04,11,54,19.40
2013,05,04,11,55,19.40
2013,05,04,11,56,19.40
2013,05,04,11,57,19.40
2013,05,04,11,58,19.50
2013,05,04,11,59,19.50
2013,05,04,12,00,19.50
2013,05,04,12,01,19.60
2013,05,04,12,02,19.60
2013,05,04,12,03,19.60
2013,05,04,12,04,19.60
2013,05,04,12,05,19.60
2013,05,04,12,06,19.60
2013,05,04,12,07,19.60
2013,05,04,12,08,19.60
2013,05,04,12,09,19.70
2013,05,04,12,10,19.80
2013,05,04,12,11,19.80
2013,05,04,12,12,19.80
2013,05,04,12,13,19.80
2013,05,04,12,14,19.90
2013,05,04,12,15,20.00
2013,05,04,12,16,20.10
2013,05,04,12,17,20.20
2013,05,04,12,18,20.30
2013,05,04,12,19,20.50
2013,05,04,12,20,20.70
2013,05,04,12,21,20.80
2013,05,04,12,22,20.90
2013,05,04,12,23,21.00
2013,05,04,12,24,21.00
2013,05,04,12,25,21.10
2013,05,04,12,26,21.00
2013,05,04,12,27,21.00
2013,05,04,12,28,20.90
2013,05,04,12,29,20.90
2013,05,04,12,30,20.90
2013,05,04,12,31,21.00
2013,05,04,12,32,21.00
2013,05,04,12,33,21.10
2013,05,04,12,34,21.10
2013,05,04,12,35,21.10
2013,05,04,12,36,21.10
2013,05,04,12,37,21.20
2013,05,04,12,38,21.20
2013,05,04,12,39,21.30
2013,05,04,12,40,21.40
2013,05,04,12,41,21.60
2013,05,04,12,42,21.70
2013,05,04,12,43,21.80
2013,05,04,12,44,21.90
2013,05,04,12,45,22.10
2013,05,04,12,46,22.20
2013,05,04,12,47,22.30
2013,05,04,12,48,22.20
2013,05,04,12,49,22.30
2013,05,04,12,50,22.20
2013,05,04,12,51,22.20
2013,05,04,12,52,22.30
2013,05,04,12,53,22.30
2013,05,04,12,54,22.40
2013,05,04,12,55,22.40
2013,05,04,12,56,22.40
2013,05,04,12,57,22.40
2013,05,04,12,58,22.40
2013,05,04,12,59,22.40
2013,05,04,13,00,22.40
2013,05,04,13,01,22.50
2013,05,04,13,02,22.50
2013,05,04,13,03,22.60
2013,05,04,13,04,22.70
2013,05,04,13,05,22.70
2013,05,04,13,06,22.70
2013,05,04,13,07,22.70
2013,05,04,13,08,22.70
2013,05,04,13,09,22.70
2013,05,04,13,10,22.70
2013,05,04,13,11,22.80
2013,05,04,13,12,22.90
2013,05,04,13,13,23.00
2013,05,04,13,14,23.00
2013,05,04,13,15,23.20
2013,05,04,13,16,23.30
2013,05,04,13,17,23.40
2013,05,04,13,18,23.50
2013,05,04,13,19,23.60
2013,05,04,13,20,23.70
2013,05,04,13,21,23.90
2013,05,04,13,22,24.00
2013,05,04,13,23,24.10
2013,05,04,13,24,24.10
2013,05,04,13,25,24.10
2013,05,04,13,26,24.20
2013,05,04,13,27,24.20
2013,05,04,13,28,24.30
2013,05,04,13,29,24.40
2013,05,04,13,30,24.50
2013,05,04,13,31,24.60
2013,05,04,13,32,24.60
2013,05,04,13,33,24.60
2013,05,04,13,34,24.70
2013,05,04,13,35,24.80
2013,05,04,13,36,24.90
2013,05,04,13,37,24.90
2013,05,04,13,38,24.90
2013,05,04,13,39,24.90
2013,05,04,13,40,24.80
2013,05,04,13,41,24.70
2013,05,04,13,42,24.70
2013,05,04,13,43,24.70
2013,05,04,13,44,24.60
2013,05,04,13,45,24.60
2013,05,04,13,46,24.60
2013,05,04,13,47,24.60
2013,05,04,13,48,24.70
2013,05,04,13,49,24.70
2013,05,04,13,50,24.70
2013,05,04,13,51,24.80
2013,05,04,13,52,24.90
2013,05,04,13,53,24.90
2013,05,04,13,54,24.90
2013,05,04,13,55,24.90
2013,05,04,13,56,25.00
2013,05,04,13,57,25.00
2013,05,04,13,58,25.10
2013,05,04,13,59,25.20
2013,05,04,14,00,25.40
2013,05,04,14,01,25.60
2013,05,04,14,02,25.70
2013,05,04,14,03,25.70
2013,05,04,14,04,25.70
2013,05,04,14,05,25.80
2013,05,04,14,06,25.80
2013,05,04,14,07,25.90
2013,05,04,14,08,25.90
2013,05,04,14,09,26.00
2013,05,04,14,10,26.10
2013,05,04,14,11,26.20
2013,05,04,14,12,26.30
2013,05,04,14,13,26.40
2013,05,04,14,14,26.50
2013,05,04,14,15,26.60
2013,05,04,14,16,26.70
2013,05,04,14,17,26.80
2013,05,04,14,18,26.80
2013,05,04,14,19,26.80
2013,05,04,14,20,26.80
2013,05,04,14,21,26.80
2013,05,04,14,22,26.90
2013,05,04,14,23,27.00
2013,05,04,14,24,27.10
2013,05,04,14,25,27.10
2013,05,04,14,26,27.20
2013,05,04,14,27,27.30
2013,05,04,14,28,27.40
2013,05,04,14,29,27.40
2013,05,04,14,30,27.50
2013,05,04,14,31,27.50
2013,05,04,14,32,27.60
2013,05,04,14,33,27.50
2013,05,04,14,34,27.50
2013,05,04,14,35,27.40
2013,05,04,14,36,27.40
2013,05,04,14,37,27.40
2013,05,04,14,38,27.40
2013,05,04,14,39,27.40
2013,05,04,14,40,27.40
2013,05,04,14,41,27.40
2013,05,04,14,42,27.50
2013,05,04,14,43,27.60
2013,05,04,14,44,27.70
2013,05,04,14,45,27.80
2013,05,04,14,46,27.80
2013,05,04,14,47,27.80
2013,05,04,14,48,27.80
2013,05,04,14,49,27.80
2013,05,04,14,50,27.90
2013,05,04,14,51,27.90
2013,05,04,14,52,27.90
2013,05,04,14,53,28.00
2013,05,04,14,54,28.00
2013,05,04,14,55,28.10
2013,05,04,14,56,28.20
2013,05,04,14,57,28.30
2013,05,04,14,58,28.30
2013,05,04,14,59,28.30
2013,05,04,15,00,28.30
2013,05,04,15,01,28.20
2013,05,04,15,02,28.20
2013,05,04,15,03,28.20
2013,05,04,15,04,28.30
2013,05,04,15,05,28.30
2013,05,04,15,06,28.30
2013,05,04,15,07,28.30
2013,05,04,15,08,28.40
2013,05,04,15,09,28.50
2013,05,04,15,10,28.50
2013,05,04,15,11,28.60
2013,05,04,15,12,28.60
2013,05,04,15,13,28.50
2013,05,04,15,14,28.50
2013,05,04,15,15,28.50
2013,05,04,15,16,28.60
2013,05,04,15,17,28.60
2013,05,04,15,18,28.60
2013,05,04,15,19,28.60
2013,05,04,15,20,28.70
2013,05,04,15,21,28.70
2013,05,04,15,22,28.70
2013,05,04,15,23,28.70
2013,05,04,15,24,28.60
2013,05,04,15,25,28.60
2013,05,04,15,26,28.60
2013,05,04,15,27,28.60
2013,05,04,15,28,28.70
2013,05,04,15,29,28.80
2013,05,04,15,30,28.90
2013,05,04,15,31,29.00
2013,05,04,15,32,29.00
2013,05,04,15,33,29.10
2013,05,04,15,34,29.00
2013,05,04,15,35,29.00
2013,05,04,15,36,29.10
2013,05,04,15,37,29.20
2013,05,04,15,38,29.30
2013,05,04,15,39,29.30
2013,05,04,15,40,29.20
2013,05,04,15,41,29.10
2013,05,04,15,42,29.10
2013,05,04,15,43,29.10
2013,05,04,15,44,29.10
2013,05,04,15,45,29.20
2013,05,04,15,46,29.30
2013,05,04,15,47,29.40
2013,05,04,15,48,29.50
2013,05,04,15,49,29.60
2013,05,04,15,50,29.70
2013,05,04,15,51,29.80
2013,05,04,15,52,29.90
2013,05,04,15,53,29.90
2013,05,04,15,54,30.00
2013,05,04,15,55,29.90
2013,05,04,15,56,29.80
2013,05,04,15,57,29.80
2013,05,04,15,58,29.60
2013,05,04,15,59,29.60
2013,05,04,16,00,29.60
2013,05,04,16,01,29.50
2013,05,04,16,02,29.50
2013,05,04,16,03,29.50
2013,05,04,16,04,29.50
2013,05,04,16,05,29.50
2013,05,04,16,06,29.50
2013,05,04,16,07,29.50
2013,05,04,16,08,29.50
2013,05,04,16,09,29.50
2013,05,04,16,10,29.50
2013,05,04,16,11,29.50
2013,05,04,16,12,29.50
2013,05,04,16,13,29.60
2013,05,04,16,14,29.50
2013,05,04,16,15,29.60
2013,05,04,16,16,29.60
2013,05,04,16,17,29.70
2013,05,04,16,18,29.60
2013,05,04,16,19,29.70
2013,05,04,16,20,29.70
2013,05,04,16,21,29.70
2013,05,04,16,22,29.70
2013,05,04,16,23,29.70
2013,05,04,16,24,29.70
2013,05,04,16,25,29.70
2013,05,04,16,26,29.70
2013,05,04,16,27,29.70
2013,05,04,16,28,29.70
2013,05,04,16,29,29.70
2013,05,04,16,30,29.70
2013,05,04,16,31,29.70
2013,05,04,16,32,29.80
2013,05,04,16,33,29.80
2013,05,04,16,34,29.90
2013,05,04,16,35,29.90
2013,05,04,16,36,29.90
2013,05,04,16,37,29.90
2013,05,04,16,38,29.90
2013,05,04,16,39,29.90
2013,05,04,16,40,30.00
2013,05,04,16,41,30.00
2013,05,04,16,42,30.10
2013,05,04,16,43,30.20
2013,05,04,16,44,30.30
2013,05,04,16,45,30.40
2013,05,04,16,46,30.40
2013,05,04,16,47,30.40
2013,05,04,16,48,30.40
2013,05,04,16,49,30.50
2013,05,04,16,50,30.50
2013,05,04,16,51,30.60
2013,05,04,16,52,30.60
2013,05,04,16,53,30.60
2013,05,04,16,54,30.60
2013,05,04,16,55,30.60
2013,05,04,16,56,30.50
2013,05,04,16,57,30.50
2013,05,04,16,58,30.50
2013,05,04,16,59,30.40
2013,05,04,17,00,30.40
2013,05,04,17,01,30.30
2013,05,04,17,02,30.30
2013,05,04,17,03,30.30
2013,05,04,17,04,30.20
2013,05,04,17,05,30.20
2013,05,04,17,06,30.20
2013,05,04,17,07,30.30
2013,05,04,17,08,30.30
2013,05,04,17,09,30.30
2013,05,04,17,10,30.30
2013,05,04,17,11,30.30
2013,05,04,17,12,30.30
2013,05,04,17,13,30.30
2013,05,04,17,14,30.30
2013,05,04,17,15,30.40
2013,05,04,17,16,30.40
2013,05,04,17,17,30.40
2013,05,04,17,18,30.40
2013,05,04,17,19,30.40
2013,05,04,17,20,30.40
2013,05,04,17,21,30.40
2013,05,04,17,22,30.40
2013,05,04,17,23,30.40
2013,05,04,17,24,30.30
2013,05,04,17,25,30.30
2013,05,04,17,26,30.30
2013,05,04,17,27,30.30
2013,05,04,17,28,30.30
2013,05,04,17,29,30.40
2013,05,04,17,30,30.40
2013,05,04,17,31,30.40
2013,05,04,17,32,30.30
2013,05,04,17,33,30.30
2013,05,04,17,34,30.30
2013,05,04,17,35,30.30
2013,05,04,17,36,30.20
2013,05,04,17,37,30.20
2013,05,04,17,38,30.20
2013,05,04,17,39,30.10